Regional Weather Roundup
Issued by NWS

Home | Current Version | Previous Version | Graphics & Text | Print | Product List | Glossary On
Versions: 1 2 3 4 5 6 7 8 9 10 11 12 13 14 15 16 17 18 19 20 21 22 23 24 25 26 27 28 29 30 31 32 33 34 35 36 37 38 39 40 41 42 43 44 45 46 47 48 49 50
000
ASUS43 KDMX 182201
RWRIA

WEATHER ROUNDUP FOR IOWA
NATIONAL WEATHER SERVICE DES MOINES IA
500 PM CDT WED OCT 18 2017

NOTE: "FAIR" INDICATES FEW OR NO CLOUDS BELOW 12,000 FEET WITH NO
SIGNIFICANT WEATHER AND/OR OBSTRUCTIONS TO VISIBILITY.

* - THESE STATIONS ARE NOT NWS STATIONS...THUS NOT UNDER NWS
QUALITY CONTROL.  THEY ALSO DO NOT REPORT WEATHER SUCH
AS PRECIPITATION OR FOG.

IAZ001>003-012>014-020>022-031>034-043>046-182300-
   NORTHWEST IOWA

CITY           SKY/WX    TMP DP  RH WIND       PRES   REMARKS
CARROLL *      SUNNY     93  72  49 NW10      29.93R HX 100
CHEROKEE *     SUNNY     70  43  37 N6        29.96R
DENISON *      SUNNY     72  46  40 N10       29.96R
LE MARS *      SUNNY     75  34  22 N8G15     29.96R
ORANGE CITY *  SUNNY     75  37  25 N8        29.97R
SHELDON *      SUNNY     73  32  21 N8G17     29.95R
SIOUX CITY     SUNNY     72  44  36 N9        29.96R
SPENCER        SUNNY     73  37  27 N9        29.95R
STORM LAKE *   SUNNY     70  41  35 NE6       29.95R
$$

IAZ055>058-069>071-079>083-090>094-182300-
   SOUTHWEST IOWA

CITY           SKY/WX    TMP DP  RH WIND       PRES   REMARKS
ATLANTIC *     SUNNY     73  50  43 SW10G16   29.94S
AUDUBON *      SUNNY     73  48  40 SW6       29.96R
CLARINDA *     SUNNY     73  48  40 SW13      29.97R
COUNCIL BLFS * SUNNY     73  52  46 SW7       29.94R
CRESTON *      SUNNY     72  50  46 SW10G17   29.97S
HARLAN  *      SUNNY     73  48  40 W7        29.98R
LAMONI         SUNNY     72  49  44 S13       29.97R
RED OAK *      SUNNY     73  50  43 SW14      29.95R
SHENANDOAH *   SUNNY     75  48  38 MISG      29.95R
$$

IAZ047>049-059>061-072>074-084-182300-
   CENTRAL IOWA

CITY           SKY/WX    TMP DP  RH WIND       PRES   REMARKS
AMES           SUNNY     74  50  42 SW12      29.93R
ANKENY *       SUNNY     73  50  43 SW9G16    29.94R
BOONE *        SUNNY     75  48  38 SW12      29.92S
CHARITON *     SUNNY     72  48  43 S13G20    29.96R
DES MOINES     MOSUNNY   74  48  39 SW12      29.93R
GRINNELL*      SUNNY     73  47  38 SW12      29.95F
KNOXVILLE *    SUNNY     73  46  38 S15       29.94S
MARSHALLTOWN   SUNNY     73  49  42 SW12      29.92R
NEWTON *       SUNNY     73  46  38 SW12G21   29.93S
PELLA *        SUNNY     74  46  36 SW13G20   29.95S
PERRY *          N/A     75  44  32 SW12      29.94R
$$

IAZ004>006-015-016-023>025-035-036-182300-
   NORTH CENTRAL IOWA

CITY           SKY/WX    TMP DP  RH WIND       PRES   REMARKS
ALGONA *       SUNNY     72  41  33 N6        29.94R
CLARION *      SUNNY     73  50  43 NW12      29.92R
ESTHERVILLE    SUNNY     71  36  27 N10       29.94R
FORT DODGE *   SUNNY     73  47  39 VRB7      29.93R
MASON CITY     SUNNY     71  46  40 NW15      29.93R
FOREST CITY *    N/A     70  43  37 W5        29.92R
WEBSTER CITY * SUNNY     77  46  33 W10G16    29.90R
IOWA FALLS *     N/A     74  49  40 SW9       29.93S
$$

IAZ007>011-017>019-026>030-037>042-050>054-066-182300-
   NORTHEAST IOWA

CITY           SKY/WX    TMP DP  RH WIND       PRES   REMARKS
CEDAR RAPIDS   SUNNY     73  45  36 S15G24    29.94F
CHARLES CITY * SUNNY     73  45  35 SW15      29.91S
CLINTON *      SUNNY     72  45  37 SW18      29.99R
DECORAH *      CLOUDY    73  46  38 SW8G18    29.89S
DUBUQUE        SUNNY     68  46  45 S15G25    29.95S
MONTICELLO *   SUNNY     72  45  37 S16G23    29.94F
OELWEIN *      PTSUNNY   73  46  38 SW18      29.93R
WATERLOO       MOSUNNY   73  46  38 SW14G21   29.91R
$$

IAZ064-065-067-068-078-182300-
   EAST CENTRAL IOWA

CITY           SKY/WX    TMP DP  RH WIND       PRES   REMARKS
DAVENPORT      SUNNY     71  44  37 S9        30.00S
IOWA CITY      SUNNY     74  47  38 S13       29.98S
MUSCATINE *    SUNNY     73  46  38 S15       29.98S
QUAD CITIES    SUNNY     72  43  35 SW16G23   29.98S
$$

IAZ062-063-075>077-085>089-095>099-182300-
   SOUTHEAST IOWA

CITY           SKY/WX    TMP DP  RH WIND       PRES   REMARKS
BURLINGTON     SUNNY     71  44  37 S15G22    30.00F
FAIRFIELD *    SUNNY     72  45  37 S14       29.96F
FORT MADISON * SUNNY     73  45  35 S12       30.01S
KEOKUK *       SUNNY     72  45  37 S10G18    30.00S
OSKALOOSA *      N/A     73  47  39 S13       29.97R
OTTUMWA        SUNNY     73  48  41 S14G24    29.96R
WASHINGTON *   SUNNY     73  46  38 S15G22    29.98S
$$

ABBREVIATIONS USED IN REMARKS
   TC - TEMPERATURES IN CELSIUS
  WCI - WIND CHILL INDEX
   HX - HEAT INDEX
  VSB - VISIBILITY
$$





USA.gov is the U.S. government's official web portal to all federal, state and local government web resources and services.